[[{"header":{"parameterUnit":"m.s-1","parameterCategory":1,"la1":30.2991,"la2":30.254,"lo1":-89.0895,"lo2":-89.0444,"dy":0.0017,"dx":0.0017,"nx":28,"ny":28,"refTime":"2023-07-28T21:00:00:Z","depth":0,"parameterNumber":2,"parameterNumberName":"U-component_of_WINDS"},"data":[0,0,0,0,0,0,0,0,0,0,0,0,0,0,0,0,0,0,0,0,0,0,0,0,0,0,0,0,0,0,0,0,0,0,0,0,0,0,0,0,0,0,0,0,0,0,0,0,0,0,0,0,0,0,0,0,0,0,1.6019,1.602,0,1.6152,1.6153,1.6155,1.6154,1.6152,1.615,1.6148,1.6291,1.6296,1.6302,0,0,0,0,0,0,0,0,0,0,0,0,0,1.5768,1.5773,1.6019,1.602,1.6022,1.6152,1.6153,1.6155,1.6154,1.6152,1.615,1.6148,1.6289,1.6296,1.6302,0,0,0,0,0,0,0,0,0,0,0,0,0,1.5887,1.5774,1.6018,1.6037,1.604,1.6151,1.6153,1.6156,1.6154,1.6152,1.6149,1.6147,1.6287,1.6295,1.6303,1.6407,0,0,1.6328,1.6331,0,0,0,0,0,0,0,0,1.588,1.5896,1.6033,1.6036,1.6039,1.6133,1.6117,1.624,1.6155,1.6111,1.6148,1.6145,1.6241,1.6253,1.6284,1.6413,1.6419,1.6329,1.6334,1.6337,1.6339,0,0,0,0,0,0,0,1.5872,1.589,1.6072,1.6035,1.6039,1.604,1.6054,1.6141,1.619,1.6115,1.6115,1.613,1.6242,1.6276,1.6287,1.6421,1.6328,1.6336,1.6341,1.6344,1.6642,1.6645,0,0,0,0,0,0,1.5859,1.5884,1.6067,1.6076,1.5951,1.6047,1.6062,1.6106,1.6189,1.6199,1.6133,1.613,1.6263,1.6278,1.6292,1.6418,1.6337,1.6345,1.6349,1.6639,1.6642,1.6646,0,0,0,0,0,0,1.5854,1.5876,1.6062,1.598,1.6003,1.6054,1.6103,1.611,1.6143,1.6202,1.6211,1.6157,1.6262,1.6281,1.6377,1.6423,1.6348,1.6356,1.6635,1.664,1.6644,1.6671,0,0,0,0,0,0,1.5847,1.5874,1.5913,1.598,1.6008,1.6144,1.6106,1.6115,1.6157,1.6154,1.6228,1.6237,1.6261,1.6365,1.6386,1.6433,1.6362,1.6631,1.6637,1.6643,1.6666,1.6676,1.6684,0,0,0,0,0,1.5838,1.5916,1.5914,1.5937,1.6057,1.6146,1.6162,1.6186,1.616,1.62,1.6238,1.6235,1.6415,1.6375,1.6398,1.6448,1.6629,1.6636,1.6642,1.6662,1.6674,1.6683,0,0,0,0,0,0,1.5855,1.5926,1.5924,1.6027,1.608,1.6146,1.6197,1.6198,1.6261,1.6257,1.6285,1.6302,1.6398,1.6433,1.6388,1.6552,1.6519,1.653,1.6526,1.6538,1.6546,1.6536,1.6369,0,0,0,0,0,1.587,1.5935,1.5994,1.6079,1.6105,1.6147,1.6186,1.62,1.6257,1.628,1.6325,1.6382,1.6451,1.6497,1.6564,1.6671,1.6687,1.6717,1.6726,1.6733,1.6743,1.6801,1.6815,1.6668,1.6668,1.6668,0,0,1.5903,1.595,1.599,1.6083,1.6126,1.6194,1.6166,1.6239,1.629,1.6292,1.6385,1.642,1.6486,1.6588,1.6635,1.662,1.6787,1.6741,1.6747,1.6753,1.6809,1.6823,1.6836,1.6672,1.6672,1.6671,0,0,1.5998,1.6039,1.6114,1.6157,1.6221,1.6248,1.6266,1.6331,1.6354,1.6447,1.645,1.6512,1.6631,1.6677,1.6716,1.6826,1.6826,1.6848,1.6894,1.6951,1.6962,1.6973,1.7011,1.7025,1.6857,1.6857,1.6858,0,1.6031,1.6131,1.6153,1.6225,1.6267,1.627,1.6346,1.6387,1.6471,1.65,1.6482,1.6629,1.6674,1.6787,1.6813,1.6845,1.6867,1.6839,1.6959,1.6969,1.6979,1.7016,1.7031,1.686,1.6859,1.6859,1.6859,0,1.6169,1.6238,1.6291,1.6369,1.6416,1.6491,1.6525,1.657,1.658,1.6609,1.6704,1.6757,1.6834,1.6862,1.6873,1.6976,1.6965,1.6952,1.6919,1.6995,1.703,1.7045,1.6863,1.6862,1.6861,1.6861,0,0,1.6278,1.6365,1.6384,1.6419,1.649,1.6545,1.662,1.6693,1.6731,1.6789,1.6853,1.6952,1.694,1.6985,1.7001,1.7051,1.7134,1.7032,1.7034,1.7048,1.725,1.7258,1.7274,1.7134,1.7137,1.7139,1.7244,0,1.6379,1.6509,1.653,1.6645,1.6709,1.6712,1.6777,1.6829,1.6858,1.6918,1.6951,1.702,1.7,1.7026,1.7076,1.7113,1.7174,1.7106,1.7194,1.7197,1.7176,1.7292,1.7302,1.7398,1.7258,1.726,1.7262,0,1.6514,1.6572,1.6692,1.6753,1.6781,1.6839,1.6907,1.6964,1.7022,1.704,1.7089,1.7099,1.7177,1.714,1.7249,1.7202,1.7239,1.7263,1.7267,1.7276,1.7233,1.7303,1.7429,1.7443,1.7284,1.7282,1.7281,0,1.658,1.6689,1.6775,1.6805,1.6878,1.6918,1.6951,1.7007,1.7049,1.711,1.7137,1.7207,1.7245,1.7299,1.7328,1.7299,1.7435,1.74,1.7452,1.7451,1.748,1.7478,1.7613,1.7506,1.7505,1.7505,1.7505,0,1.669,1.6763,1.6805,1.6858,1.694,1.6964,1.7046,1.7078,1.7127,1.7187,1.7195,1.7252,1.7287,1.7348,1.7372,1.7458,1.7476,1.7492,1.7498,1.7491,1.7489,1.7515,1.7509,1.7509,1.7508,1.7507,1.7507,0,1.6777,1.6808,1.6902,1.6963,1.698,1.7038,1.7091,1.7143,1.7171,1.7246,1.7266,1.7311,1.7384,1.7418,1.7509,1.7525,1.7622,1.7623,1.7601,1.7603,1.7652,1.7647,1.7808,1.7831,1.771,1.7711,1.7712,0,1.6845,1.6901,1.6967,1.7007,1.704,1.7104,1.7146,1.7173,1.7217,1.7287,1.733,1.7403,1.7462,1.7579,1.7621,1.769,1.7693,1.7745,1.7704,1.7695,1.7692,1.7688,1.7694,1.7752,1.7753,1.7754,1.7755,0,1.6961,1.6973,1.7033,1.7098,1.7148,1.7201,1.7253,1.7286,1.7321,1.737,1.7443,1.7489,1.7581,1.7653,1.7725,1.776,1.7764,1.7768,1.7783,1.7776,1.7761,1.7769,1.762,1.7764,1.7763,1.7762,1.7762,1.7761,1.704,1.7089,1.7143,1.7209,1.7251,1.7299,1.735,1.7384,1.7445,1.752,1.7532,1.761,1.7667,1.7764,1.7802,1.7864,1.7852,1.7875,1.788,1.7885,1.7887,1.7751,1.7877,1.7877,1.7877,1.7877,1.7877,0,1.7155,1.719,1.725,1.7322,1.7374,1.7371,1.7428,1.7472,1.754,1.7592,1.7649,1.7733,1.7803,1.785,1.792,1.7961,1.7964,1.7979,1.7976,1.7984,1.7894,1.7873,1.7975,1.7975,1.7975,1.7975,1.7975,1.7975,1.7221,1.7304,1.7323,1.7426,1.7461,1.7535,1.7568,1.7613,1.7654,1.7747,1.7804,1.7833,1.7883,1.7957,1.8021,1.8033,1.8059,1.8073,1.8085,1.8,1.799,1.798,1.7961,1.8079,1.8079,1.8169,1.817,1.817]},{"header":{"parameterUnit":"m.s-1","parameterCategory":1,"la1":30.2991,"la2":30.254,"lo1":-89.0895,"lo2":-89.0444,"dy":0.0017,"dx":0.0017,"nx":28,"ny":28,"refTime":"2023-07-28T21:00:00:Z","depth":0,"parameterNumber":3,"parameterNumberName":"V-component_of_WINDS"},"data":[0,0,0,0,0,0,0,0,0,0,0,0,0,0,0,0,0,0,0,0,0,0,0,0,0,0,0,0,0,0,0,0,0,0,0,0,0,0,0,0,0,0,0,0,0,0,0,0,0,0,0,0,0,0,0,0,0,0,3.7318,3.7319,0,3.7392,3.7393,3.7394,3.7385,3.7384,3.7383,3.7382,3.7452,3.7455,3.7458,0,0,0,0,0,0,0,0,0,0,0,0,0,3.7162,3.7165,3.7318,3.7319,3.732,3.7392,3.7393,3.7394,3.7385,3.7384,3.7383,3.7381,3.7451,3.7454,3.7458,0,0,0,0,0,0,0,0,0,0,0,0,0,3.7232,3.7166,3.7318,3.7325,3.7326,3.7392,3.7393,3.7394,3.7386,3.7384,3.7382,3.7381,3.745,3.7454,3.7458,3.7521,0,0,3.7472,3.7474,0,0,0,0,0,0,0,0,3.7228,3.7238,3.7323,3.7324,3.7326,3.7378,3.7364,3.7437,3.7386,3.7363,3.7382,3.738,3.7428,3.7434,3.7452,3.7524,3.7527,3.7472,3.7475,3.7477,3.7478,0,0,0,0,0,0,0,3.7223,3.7234,3.7347,3.7324,3.7326,3.7321,3.7329,3.7377,3.7404,3.7365,3.7364,3.7374,3.7429,3.7448,3.7454,3.7528,3.7472,3.7476,3.7479,3.7481,3.7651,3.7652,0,0,0,0,0,0,3.7217,3.723,3.7345,3.735,3.7272,3.7325,3.7334,3.7363,3.7404,3.7409,3.7375,3.7373,3.7441,3.7448,3.7456,3.7529,3.7477,3.7481,3.7484,3.7649,3.7651,3.7653,0,0,0,0,0,0,3.7214,3.7228,3.7342,3.729,3.7304,3.733,3.7362,3.7365,3.7384,3.7412,3.7416,3.739,3.744,3.745,3.7504,3.7531,3.7483,3.7487,3.7647,3.765,3.7652,3.7677,0,0,0,0,0,0,3.721,3.7227,3.7253,3.7291,3.7307,3.7392,3.7364,3.7368,3.7393,3.739,3.7427,3.7431,3.7439,3.7498,3.7509,3.7537,3.7491,3.7644,3.7648,3.7651,3.7674,3.7681,3.7686,0,0,0,0,0,3.7204,3.7257,3.7254,3.7268,3.7341,3.7393,3.7402,3.7413,3.7395,3.742,3.7437,3.743,3.7527,3.7503,3.7516,3.7545,3.7643,3.7647,3.7651,3.7671,3.7679,3.7686,0,0,0,0,0,0,3.722,3.7262,3.726,3.7327,3.7357,3.7392,3.7424,3.7421,3.7456,3.7452,3.7461,3.7469,3.7524,3.754,3.7513,3.7606,3.7582,3.7589,3.7593,3.7601,3.7607,3.7601,3.7494,0,0,0,0,0,3.7232,3.7274,3.7307,3.7362,3.7378,3.7398,3.7421,3.7426,3.7457,3.7469,3.7491,3.7519,3.7555,3.7579,3.7615,3.7676,3.7682,3.7703,3.7709,3.7713,3.7719,3.7749,3.7758,3.7667,3.7667,3.7667,0,0,3.7256,3.7284,3.7309,3.7366,3.739,3.743,3.7409,3.7453,3.7482,3.7475,3.7528,3.7544,3.7576,3.7634,3.766,3.7649,3.7745,3.7719,3.7722,3.7725,3.7754,3.7763,3.777,3.767,3.7669,3.7669,0,0,3.732,3.7346,3.7394,3.7418,3.7455,3.7467,3.7478,3.7514,3.7524,3.7578,3.7573,3.7606,3.767,3.7692,3.7711,3.7779,3.7773,3.7791,3.7821,3.7851,3.7858,3.7864,3.7886,3.7894,3.7796,3.7796,3.7796,0,3.7344,3.7407,3.7418,3.7462,3.7486,3.7483,3.7529,3.7551,3.7597,3.7611,3.7599,3.7676,3.7698,3.7759,3.7775,3.7792,3.7803,3.7786,3.7857,3.7863,3.7869,3.789,3.7898,3.7798,3.7798,3.7797,3.7797,0,3.7434,3.7477,3.751,3.7555,3.7582,3.7627,3.7642,3.7668,3.767,3.7683,3.7735,3.776,3.7799,3.7814,3.7816,3.7874,3.7866,3.7855,3.7831,3.7879,3.7899,3.7907,3.78,3.78,3.7799,3.7799,0,0,3.7511,3.756,3.7572,3.7591,3.7629,3.7661,3.7704,3.7743,3.7764,3.7794,3.7828,3.7881,3.787,3.7892,3.7896,3.7922,3.7971,3.7908,3.7908,3.7917,3.8033,3.804,3.8049,3.7967,3.7969,3.797,3.803,0,3.7577,3.7655,3.7665,3.7733,3.7771,3.7767,3.7803,3.7829,3.7842,3.7873,3.7887,3.7923,3.7907,3.792,3.7946,3.796,3.7994,3.7956,3.7996,3.7998,3.7988,3.806,3.8068,3.8123,3.8038,3.8039,3.804,0,3.7665,3.7698,3.777,3.78,3.7817,3.785,3.7885,3.7916,3.7944,3.7951,3.7974,3.7974,3.8015,3.799,3.8045,3.8018,3.8035,3.8044,3.8046,3.8049,3.8021,3.8063,3.8141,3.8149,3.8053,3.8052,3.8051,0,3.7711,3.7773,3.7824,3.784,3.7878,3.7901,3.7917,3.7943,3.7965,3.7994,3.8008,3.8042,3.806,3.8084,3.8092,3.8074,3.8145,3.8122,3.815,3.815,3.8165,3.8163,3.8245,3.8178,3.8178,3.8178,3.8178,0,3.7782,3.7826,3.7845,3.7876,3.7923,3.7932,3.7978,3.7993,3.8016,3.8047,3.8045,3.8074,3.8084,3.8114,3.812,3.8162,3.8171,3.8175,3.8176,3.8175,3.8174,3.8185,3.8181,3.818,3.818,3.8179,3.8179,0,3.7842,3.7857,3.7911,3.7941,3.795,3.7983,3.8008,3.8036,3.8047,3.8086,3.8096,3.8113,3.8148,3.8158,3.82,3.8204,3.8253,3.8251,3.8244,3.8244,3.827,3.8267,3.8361,3.8372,3.83,3.83,3.8301,0,3.7886,3.7919,3.7953,3.7974,3.7991,3.8026,3.8048,3.8057,3.808,3.8112,3.8135,3.817,3.8198,3.8253,3.8268,3.8298,3.8296,3.8327,3.8301,3.8297,3.8294,3.8291,3.8293,3.8331,3.8332,3.8333,3.8333,0,3.7961,3.7966,3.7999,3.8034,3.806,3.8087,3.8113,3.813,3.8143,3.8168,3.8204,3.8225,3.8267,3.83,3.8331,3.8345,3.834,3.8341,3.8349,3.8347,3.8341,3.8342,3.8255,3.8339,3.8338,3.8338,3.8338,3.8338,3.8013,3.8041,3.8068,3.8104,3.8124,3.8148,3.8175,3.819,3.822,3.8256,3.8259,3.8297,3.832,3.8361,3.8376,3.8404,3.8395,3.8407,3.841,3.8412,3.8413,3.8338,3.841,3.841,3.841,3.841,3.841,0,3.8086,3.8103,3.8136,3.8172,3.8199,3.8194,3.8221,3.8244,3.8277,3.8301,3.8328,3.8367,3.8399,3.8415,3.8446,3.8465,3.8463,3.8472,3.847,3.8473,3.8421,3.841,3.8473,3.8473,3.8473,3.8473,3.8473,3.8473,3.8127,3.8174,3.8182,3.8237,3.8253,3.8291,3.8307,3.8327,3.8345,3.839,3.8416,3.8427,3.8447,3.8478,3.8506,3.8509,3.852,3.853,3.8532,3.8483,3.8477,3.847,3.846,3.8532,3.8533,3.8581,3.8582,3.8582]}]]